Temp
63 64 64 64 64 65 64 64 64 65 65 66 66 66 65 65 64 63 60 60 64 67 68 68 68 68 69 67 66 65 65 64 63 62 62 62 62 62 62 63 63 63 63
65 64 64 64 64 65 65 64 63 63 63 65 65 68 66 65 64 63 62 60 62 64 65 66 67 67 66 65 64 64 63 63 62 61 61 61 61 62 62 62 62 62 62
66 65 64 64 68 65 65 64 64 63 63 67 67 68 66 65 63 62 62 61 58 60 62 63 63 63 63 63 63 62 62 62 61 60 60 60 60 61 61 61 61 61 61
67 65 65 67 66 65 63 63 61 61 65 66 65 63 64 63 62 61 60 59 56 56 58 60 60 60 60 60 61 61 61 60 60 59 59 59 60 60 60 60 60 60 60
67 65 64 66 67 62 62 61 59 62 63 62 61 60 59 59 59 61 58 56 55 54 53 57 56 57 57 58 58 59 60 59 59 58 58 58 59 59 59 59 59 59 60
66 64 63 62 61 60 60 59 61 62 63 60 63 62 58 58 56 55 54 56 53 52 51 51 49 50 54 55 55 57 58 58 58 57 57 58 58 58 58 59 59 59 59
65 63 61 61 61 60 60 61 62 62 62 58 56 58 56 57 56 53 52 51 52 51 50 49 47 45 47 52 52 54 56 57 57 56 56 57 57 57 58 58 58 58 58
64 63 61 61 61 60 61 61 61 60 60 57 54 53 50 52 53 54 51 51 48 49 49 49 47 46 43 42 46 51 53 54 55 55 55 55 56 57 57 57 58 57 58
64 63 62 62 62 61 61 60 61 60 58 54 55 52 48 46 49 51 49 48 48 46 47 47 47 46 44 41 42 43 50 51 52 53 53 54 55 55 56 56 56 56 56
64 64 63 62 62 62 62 61 60 60 60 54 52 54 51 49 45 43 47 46 47 48 45 45 43 44 43 41 42 45 47 48 49 50 51 52 53 54 55 55 56 56 56
64 63 63 62 61 61 60 59 57 58 59 54 52 49 48 46 46 44 40 42 45 45 45 43 42 41 42 41 38 42 47 47 47 48 49 50 51 52 53 54 55 54 54
60 60 59 61 60 58 57 56 56 57 53 52 50 49 46 45 44 42 40 41 40 41 42 42 41 40 40 40 43 43 46 46 46 47 48 49 49 50 51 52 53 53 53
57 58 58 56 55 55 55 55 54 52 49 48 47 45 45 44 45 44 42 39 38 41 41 40 40 39 43 39 39 42 44 44 45 46 47 47 48 49 49 50 50 50 50
59 58 57 56 55 53 53 52 50 49 46 44 44 43 41 41 42 42 41 39 35 36 38 37 39 38 38 39 40 43 39 43 44 44 45 46 46 47 47 48 49 49 49
58 55 55 54 53 51 51 50 46 44 44 42 41 40 39 40 40 40 39 38 38 32 34 36 35 38 38 38 39 38 37 42 44 44 44 44 45 46 46 46 47 47 47
54 52 51 51 51 50 48 46 44 42 42 40 40 39 38 38 38 38 37 38 37 36 34 38 37 37 38 41 40 37 37 40 42 43 43 44 44 44 44 45 45 45 45
52 49 49 49 49 48 48 45 42 42 40 39 38 38 37 38 36 37 37 38 37 36 34 36 38 37 36 35 36 36 36 35 34 41 43 43 43 43 43 43 43 43 43
50 49 48 49 49 47 46 44 43 42 40 38 38 38 37 40 37 37 37 36 36 37 35 33 34 33 33 34 34 32 36 38 33 40 43 43 42 43 43 43 41 41 41
48 47 48 48 47 45 45 45 44 41 39 39 38 37 37 37 35 35 35 35 36 38 34 31 30 33 32 31 30 31 31 30 35 39 41 40 40 42 42 42 40 40 40
45 45 45 46 45 44 44 43 41 40 38 38 38 38 37 36 35 35 35 34 35 32 32 30 28 27 27 30 28 26 26 26 27 34 36 36 38 39 40 40 38 38 39
43 43 42 42 42 42 43 41 41 38 38 36 36 37 37 36 37 37 36 34 33 32 31 30 29 27 28 28 28 27 25 24 24 24 24 25 27 29 31 33 34 38 38
39 38 38 39 39 42 42 41 39 38 37 35 34 34 35 34 37 39 40 39 37 33 32 29 28 29 31 29 27 25 28 24 18 23 23 26 25 25 27 27 37 39 38
36 36 36 37 36 37 41 41 39 37 36 35 34 33 33 33 33 34 38 38 38 39 38 33 29 30 29 30 28 26 28 28 27 25 22 15 22 23 25 30 37 37 36
35 36 35 36 36 36 40 40 38 35 34 32 33 33 33 32 33 33 33 33 33 33 34 34 32 32 31 30 29 30 29 28 24 24 21 13 20 20 23 24 36 36 35
33 34 35 34 35 34 40 39 37 33 33 32 33 33 33 32 35 37 32 31 31 32 36 38 37 36 36 37 34 29 18 15 12 18 20 17 18 17 18 19 25 34 33
33 32 32 33 33 33 38 39 36 32 31 31 31 32 33 34 36 37 32 31 30 30 30 28 28 31 32 31 35 28 22 13 11 12 20 16 17 16 12 17 19 17 22
MSLP
1025.77 1025.68 1025.80 1025.92 1026.01 1026.03 1026.17 1026.30 1026.34 1026.38 1026.32 1026.27 1026.22 1026.19 1026.27 1026.30 1026.36 1026.91 1027.35 1027.27 1027.37 1027.26 1027.20 1027.10 1026.92 1026.74 1026.59 1026.78 1026.88 1026.87 1026.76 1026.63 1026.35 1026.39 1026.01 1025.64 1025.36 1024.99 1024.66 1024.18 1023.72 1023.33 1023.01
1025.38 1025.54 1025.71 1025.76 1025.80 1025.81 1025.97 1026.16 1026.29 1026.35 1026.27 1026.14 1026.15 1026.04 1026.10 1026.29 1026.46 1026.75 1027.40 1027.79 1027.81 1027.78 1027.79 1027.59 1027.40 1027.22 1027.35 1027.55 1027.56 1027.44 1027.23 1027.13 1026.92 1026.72 1026.42 1025.99 1025.57 1025.23 1024.83 1024.45 1023.95 1023.44 1023.10
1024.90 1025.17 1025.42 1025.63 1025.56 1025.81 1025.94 1026.08 1026.10 1026.19 1026.20 1026.02 1026.03 1026.04 1026.01 1026.30 1026.66 1026.98 1027.42 1028.03 1028.30 1028.24 1028.31 1028.17 1028.11 1028.18 1028.08 1028.02 1027.95 1027.75 1027.60 1027.44 1027.23 1027.12 1026.86 1026.49 1026.01 1025.54 1025.19 1024.79 1024.35 1023.66 1023.19
1024.71 1024.95 1025.16 1025.24 1025.37 1025.70 1025.97 1026.13 1026.30 1026.33 1026.20 1025.99 1026.12 1026.24 1026.24 1026.51 1026.91 1027.29 1027.55 1028.03 1028.33 1028.62 1028.73 1028.78 1028.92 1028.81 1028.64 1028.55 1028.29 1028.02 1027.77 1027.57 1027.28 1027.33 1027.18 1026.69 1026.32 1025.79 1025.29 1025.00 1024.53 1023.88 1023.30
1024.64 1024.86 1025.02 1025.19 1025.34 1025.75 1025.93 1026.10 1026.35 1026.33 1026.17 1026.31 1026.38 1026.35 1026.64 1026.84 1027.23 1027.60 1028.05 1028.36 1028.66 1028.93 1029.31 1029.45 1029.46 1029.28 1029.18 1029.08 1028.89 1028.51 1028.09 1027.91 1027.77 1027.70 1027.47 1026.93 1026.30 1025.91 1025.48 1025.16 1024.69 1024.08 1023.46
1024.57 1024.83 1024.95 1025.13 1025.35 1025.77 1026.00 1026.20 1026.14 1026.00 1026.10 1026.34 1026.46 1026.67 1026.95 1027.20 1027.51 1028.05 1028.55 1028.73 1028.93 1029.22 1029.52 1029.88 1030.04 1030.01 1029.93 1029.75 1029.53 1028.98 1028.67 1028.24 1028.10 1027.92 1027.69 1027.32 1026.63 1026.11 1025.66 1025.07 1024.74 1024.20 1023.63
1023.95 1024.47 1024.78 1024.94 1025.00 1025.34 1025.62 1025.71 1025.91 1025.97 1026.12 1026.48 1026.80 1027.07 1027.24 1027.59 1027.98 1028.42 1028.70 1029.07 1029.27 1029.55 1029.87 1030.15 1030.36 1030.50 1030.63 1030.40 1030.29 1029.85 1029.11 1028.68 1028.45 1028.23 1027.82 1027.38 1026.90 1026.32 1025.84 1025.27 1025.00 1024.54 1024.03
1023.49 1024.01 1024.43 1024.63 1024.72 1024.99 1025.24 1025.48 1025.67 1025.88 1026.09 1026.58 1027.00 1027.13 1028.10 1028.51 1028.47 1028.58 1028.91 1029.10 1029.46 1029.72 1030.12 1030.56 1030.70 1030.83 1030.92 1031.07 1031.01 1030.48 1029.90 1029.19 1028.85 1028.46 1028.13 1027.71 1027.29 1026.63 1026.14 1025.80 1025.25 1024.80 1024.29
1023.20 1023.55 1023.87 1024.18 1024.37 1024.61 1024.87 1025.10 1025.30 1025.55 1025.95 1026.59 1026.85 1027.29 1027.63 1028.24 1028.67 1029.11 1029.25 1029.47 1029.66 1030.09 1030.47 1030.70 1030.94 1031.10 1031.19 1031.44 1031.49 1031.09 1030.36 1029.84 1029.40 1029.04 1028.59 1028.12 1027.73 1027.16 1026.50 1026.04 1025.77 1025.36 1024.77
1022.50 1022.74 1022.97 1023.42 1023.76 1024.06 1024.39 1024.48 1024.65 1025.11 1025.53 1026.24 1026.86 1027.04 1027.20 1027.46 1028.09 1029.24 1029.64 1029.76 1029.89 1030.11 1030.30 1030.78 1031.15 1031.43 1031.26 1031.23 1031.43 1031.07 1030.51 1030.09 1029.93 1029.55 1029.00 1028.54 1028.18 1027.71 1027.05 1026.62 1026.14 1025.60 1025.07
1021.99 1022.20 1022.41 1022.62 1022.98 1023.36 1023.68 1024.07 1024.69 1025.03 1025.33 1025.92 1026.42 1027.06 1027.47 1027.71 1027.92 1028.34 1029.35 1030.11 1030.22 1030.30 1030.30 1030.67 1031.08 1031.45 1031.58 1031.32 1031.24 1031.06 1030.63 1030.31 1030.13 1029.83 1029.31 1028.89 1028.83 1028.57 1027.82 1026.95 1026.42 1025.96 1025.29
1021.50 1021.75 1022.09 1022.17 1022.40 1022.84 1023.41 1023.72 1024.04 1024.66 1025.11 1025.59 1026.15 1026.46 1026.94 1027.41 1028.00 1028.29 1028.81 1029.54 1029.86 1030.58 1030.48 1030.59 1030.91 1031.19 1031.46 1031.59 1031.12 1030.83 1030.59 1030.32 1030.12 1029.99 1029.78 1029.51 1029.24 1028.89 1028.52 1027.47 1026.83 1026.33 1025.63
1020.82 1021.19 1021.58 1022.09 1022.46 1022.69 1023.03 1023.50 1024.01 1024.41 1025.01 1025.53 1026.01 1026.61 1026.85 1026.89 1027.09 1027.87 1028.43 1028.87 1029.47 1030.10 1030.65 1030.67 1030.57 1030.69 1030.76 1031.18 1031.03 1030.55 1030.67 1030.63 1030.35 1030.26 1030.08 1029.82 1029.52 1029.04 1028.80 1028.08 1027.30 1026.70 1025.93
1020.02 1020.16 1020.67 1021.04 1021.66 1022.23 1022.83 1023.24 1023.92 1024.29 1024.93 1025.69 1025.90 1026.51 1026.95 1027.32 1027.32 1027.48 1027.95 1028.63 1029.59 1029.82 1030.24 1030.90 1030.81 1030.61 1030.69 1030.90 1030.86 1030.52 1030.70 1030.70 1030.53 1030.40 1030.18 1029.93 1029.56 1029.15 1028.88 1028.37 1027.67 1026.92 1026.24
1019.29 1019.81 1020.18 1020.71 1021.14 1021.75 1022.28 1023.00 1023.88 1024.31 1024.70 1025.56 1026.01 1026.63 1026.96 1027.36 1027.50 1027.76 1028.05 1028.23 1028.87 1029.85 1030.18 1030.61 1030.99 1030.81 1030.87 1030.85 1030.75 1030.79 1030.78 1030.76 1030.37 1030.33 1030.21 1029.94 1029.61 1029.22 1028.87 1028.38 1027.78 1027.09 1026.47
1018.70 1019.45 1020.12 1020.59 1020.99 1021.41 1022.06 1022.78 1023.70 1024.49 1024.70 1025.46 1026.09 1026.53 1027.06 1027.57 1027.77 1028.14 1028.35 1028.73 1028.89 1029.37 1029.89 1029.94 1030.39 1030.63 1030.86 1030.90 1030.64 1030.61 1030.54 1030.58 1030.24 1030.14 1030.07 1029.86 1029.57 1029.24 1028.85 1028.45 1027.94 1027.37 1026.74
1018.40 1019.27 1019.85 1020.54 1021.03 1021.46 1021.93 1022.52 1023.49 1024.01 1024.51 1025.24 1025.77 1026.28 1027.09 1027.48 1027.87 1028.07 1028.49 1028.96 1029.16 1029.33 1029.80 1029.89 1029.94 1030.13 1030.53 1031.08 1030.96 1030.61 1030.47 1030.61 1030.21 1030.07 1029.87 1029.71 1029.43 1029.04 1028.82 1028.42 1028.04 1027.46 1026.79
1018.17 1018.97 1019.73 1020.40 1020.81 1021.20 1021.41 1022.44 1022.96 1023.35 1024.33 1024.81 1025.37 1026.04 1026.71 1027.20 1027.75 1027.95 1028.29 1028.84 1029.08 1029.24 1029.63 1029.93 1030.03 1030.19 1030.29 1030.56 1030.74 1030.76 1030.48 1030.17 1030.16 1029.67 1029.43 1029.43 1029.16 1028.84 1028.77 1028.34 1028.06 1027.63 1026.95
1017.78 1018.66 1019.47 1019.98 1020.71 1020.57 1021.92 1021.87 1022.37 1023.04 1023.81 1024.31 1024.75 1025.35 1026.10 1026.66 1027.20 1027.65 1028.04 1028.72 1029.03 1029.29 1029.66 1029.88 1030.12 1030.23 1030.42 1030.66 1030.73 1030.70 1030.63 1030.34 1029.96 1029.34 1029.15 1029.13 1028.99 1028.76 1028.55 1028.25 1028.10 1027.65 1027.17
1017.86 1018.28 1018.94 1019.61 1019.99 1020.74 1020.83 1021.95 1022.45 1022.97 1023.80 1024.24 1024.84 1025.13 1025.65 1026.14 1026.60 1027.07 1027.69 1028.16 1028.80 1029.10 1029.69 1029.86 1030.08 1030.64 1030.49 1030.66 1030.87 1030.91 1030.94 1030.72 1029.94 1029.39 1029.20 1028.98 1028.90 1028.73 1028.60 1028.40 1028.32 1027.83 1027.13
1017.86 1018.58 1019.19 1019.65 1020.19 1020.40 1021.31 1021.02 1022.42 1022.57 1023.41 1023.95 1024.73 1025.01 1025.38 1026.01 1026.51 1026.78 1027.31 1027.80 1028.40 1028.82 1029.56 1029.65 1029.89 1030.41 1030.23 1030.58 1031.04 1030.90 1031.16 1030.64 1030.27 1029.66 1029.40 1029.09 1028.85 1028.86 1028.79 1028.68 1028.38 1027.75 1027.28
1017.50 1018.17 1018.76 1019.17 1019.83 1020.21 1020.27 1021.49 1021.85 1022.65 1023.45 1024.04 1024.61 1025.14 1025.34 1026.13 1026.52 1026.84 1027.03 1027.41 1027.79 1028.32 1028.72 1029.25 1029.71 1030.02 1029.83 1030.10 1030.41 1030.94 1031.08 1030.89 1030.52 1029.96 1029.29 1028.96 1028.77 1028.95 1028.88 1028.68 1028.12 1027.66 1027.40
1017.85 1017.99 1018.53 1019.09 1019.59 1020.07 1020.74 1021.50 1021.78 1022.79 1023.07 1023.92 1024.11 1024.89 1025.19 1025.43 1026.17 1026.79 1027.07 1027.43 1027.77 1027.71 1027.94 1028.69 1029.26 1029.58 1029.55 1029.54 1030.06 1030.63 1030.78 1030.80 1030.67 1029.86 1029.76 1029.56 1029.03 1028.93 1028.53 1028.36 1027.93 1027.69 1027.55
1017.78 1018.02 1018.32 1018.46 1018.95 1019.95 1020.55 1020.81 1021.70 1022.07 1022.72 1023.68 1023.50 1024.48 1024.92 1025.35 1026.08 1026.55 1027.00 1027.28 1027.64 1027.61 1027.95 1028.42 1028.73 1028.98 1029.10 1029.23 1029.77 1029.89 1030.12 1030.27 1030.08 1029.75 1029.76 1030.00 1029.27 1029.09 1028.42 1028.33 1027.97 1027.75 1027.72
1018.34 1018.08 1018.43 1018.68 1018.71 1019.15 1020.05 1020.83 1021.49 1022.13 1022.49 1023.36 1023.88 1024.59 1024.82 1025.01 1025.38 1026.14 1026.70 1027.19 1027.27 1027.39 1027.57 1028.01 1028.36 1028.57 1028.54 1028.57 1029.05 1029.60 1029.98 1030.49 1030.65 1029.74 1029.66 1029.71 1029.56 1029.30 1028.94 1028.71 1028.04 1027.79 1027.88
1018.20 1018.43 1018.60 1019.06 1019.42 1019.78 1020.45 1021.13 1021.61 1022.01 1022.57 1023.13 1023.82 1024.50 1024.57 1024.83 1025.13 1025.49 1025.99 1026.42 1026.86 1026.88 1027.56 1027.91 1028.54 1028.45 1028.43 1028.65 1028.66 1029.19 1029.62 1030.12 1030.36 1030.18 1029.41 1029.65 1029.83 1029.67 1029.88 1028.79 1028.33 1028.26 1028.11
Wind_Speed
3 2 3 3 3 2 2 1 2 0 1 1 1 2 3 4 6 6 4 13 17 18 18 19 19 18 20 23 22 22 21 22 22 22 23 23 23 24 24 25 25 26 27
4 4 3 3 3 1 2 2 2 1 3 2 2 1 2 5 6 6 6 8 15 18 19 18 19 21 22 22 21 21 22 22 22 23 23 23 24 24 25 26 26 26 27
5 5 4 3 3 3 1 1 2 1 3 3 2 3 3 6 6 6 6 7 8 16 19 19 22 20 21 21 21 21 21 21 22 23 23 24 24 24 25 25 26 26 27
6 4 4 4 4 3 2 1 2 2 1 2 1 3 3 6 7 7 7 7 4 6 12 18 19 19 21 21 21 20 21 21 22 22 22 22 23 24 25 26 26 27 28
5 4 3 3 4 1 2 2 0 2 1 3 3 2 4 5 6 6 7 7 7 6 5 16 18 18 19 20 20 20 21 21 21 21 21 22 23 24 25 26 27 27 28
6 4 3 5 4 3 2 2 3 2 2 2 2 3 5 4 5 5 6 6 6 7 7 9 6 7 17 18 20 20 20 20 20 20 22 23 24 24 25 26 27 28 29
8 6 5 5 5 5 5 5 2 2 2 2 2 3 3 6 7 5 5 5 6 7 8 6 4 4 6 17 19 19 19 19 21 21 22 23 23 25 25 27 27 27 28
7 7 6 5 5 4 5 5 4 2 2 2 2 2 2 1 3 5 5 5 6 5 6 6 7 6 5 4 11 17 18 20 21 21 22 23 24 25 26 25 27 27 28
8 7 7 5 5 5 4 5 5 6 4 1 3 3 2 4 3 2 4 5 6 5 5 6 7 5 5 5 7 9 18 19 20 21 22 22 23 24 24 25 26 28 28
9 10 9 8 7 5 6 5 4 3 4 4 2 1 2 3 4 2 1 3 5 6 6 5 5 4 5 4 9 12 16 17 18 19 20 21 23 23 23 24 25 26 28
9 9 10 9 7 6 5 6 5 5 3 4 4 3 1 2 1 3 4 3 3 3 4 5 5 4 4 4 3 7 15 16 17 17 19 20 20 21 22 23 25 27 28
5 6 6 7 7 6 7 6 6 6 5 4 3 4 4 4 3 3 3 2 4 2 3 4 5 3 3 3 6 10 12 14 15 16 17 17 17 18 20 23 24 26 28
5 9 9 7 5 5 6 7 6 6 6 5 6 3 2 3 3 3 3 3 3 3 2 2 4 4 2 2 3 9 9 12 12 13 13 14 15 17 20 22 24 26 27
9 9 11 10 9 8 7 7 5 5 6 5 8 5 4 2 2 2 4 5 1 1 1 2 1 3 2 1 4 8 4 8 8 9 11 12 13 16 19 21 23 25 27
7 10 11 11 10 9 9 8 5 6 7 5 6 6 4 3 3 3 2 3 5 5 5 3 2 2 0 0 2 2 2 6 5 8 10 11 12 15 17 20 22 25 27
9 10 10 10 11 10 9 9 6 6 8 5 5 7 5 3 4 3 3 2 2 3 4 3 2 3 1 1 1 2 2 5 6 7 9 11 11 14 16 18 21 24 26
10 9 10 9 10 11 10 9 8 10 10 9 7 8 7 6 4 4 3 2 2 2 3 0 2 3 2 0 3 3 2 3 3 7 8 12 12 13 15 16 20 23 26
8 9 9 9 10 10 13 11 13 12 11 12 11 10 9 7 7 6 4 5 4 3 3 4 2 2 3 3 1 2 3 3 3 5 7 11 13 13 16 14 18 21 25
8 8 9 11 10 13 10 11 12 11 11 11 12 11 11 9 7 5 4 5 4 3 2 2 2 2 2 1 1 2 3 2 3 6 5 9 13 12 14 15 16 20 24
8 9 9 10 9 9 12 9 9 9 9 8 8 9 10 10 10 8 6 6 5 4 3 2 1 2 2 2 1 1 3 2 3 2 3 6 10 11 14 15 14 17 23
6 6 6 6 7 8 7 12 10 10 11 9 7 7 7 7 9 9 6 6 6 4 2 2 2 2 2 1 2 1 2 3 3 1 3 2 3 3 5 8 9 13 21
6 6 7 9 10 7 14 13 12 10 9 9 8 6 7 8 10 11 10 12 9 7 5 3 2 3 3 3 2 1 3 2 3 2 3 5 1 2 3 3 11 16 20
5 8 8 9 8 6 16 15 13 7 8 8 9 9 7 6 8 7 10 9 8 9 7 5 3 4 2 4 4 2 4 4 4 3 2 3 2 3 2 4 9 16 19
8 8 8 8 9 6 18 18 15 9 8 7 9 9 9 9 8 8 7 6 6 5 5 4 5 4 2 4 4 4 4 4 4 3 3 1 2 3 3 3 7 15 17
3 5 5 7 9 9 19 18 15 8 7 7 6 7 8 9 13 16 8 7 6 6 7 10 8 6 5 8 9 2 3 2 3 3 1 2 2 2 2 2 2 12 16
4 4 5 4 4 6 15 16 10 4 6 5 4 6 11 9 16 19 8 8 8 5 6 2 2 4 3 5 10 6 3 3 3 3 3 2 2 2 4 3 2 2 2
Wind_Direction
180 164 160 168 146 188 151 159 118 185 293 57 318 89 24 33 60 96 86 79 70 61 53 51 51 52 53 46 39 36 32 30 31 24 21 20 16 13 10 8 4 1 357
173 157 179 175 178 156 107 74 65 343 296 188 300 121 90 71 67 75 105 87 78 69 58 55 55 54 51 46 37 35 33 31 29 25 22 19 17 14 11 8 5 3 359
178 168 175 172 183 115 104 215 273 308 330 13 339 45 81 95 81 65 107 99 82 75 68 59 61 58 51 43 39 37 35 32 29 24 21 19 17 16 12 9 6 5 1
169 191 172 191 142 154 185 199 60 320 320 309 48 20 4 95 90 88 74 77 71 83 70 75 67 56 47 44 39 36 35 33 31 26 22 21 19 17 15 11 8 6 3
198 172 179 126 122 91 73 97 258 224 350 3 16 328 79 102 97 93 86 77 70 68 87 82 73 56 50 46 37 34 34 34 33 28 24 23 21 19 16 11 9 6 6
192 185 167 158 146 163 197 203 214 220 203 100 349 68 96 91 99 87 84 84 83 75 69 64 41 32 52 46 36 33 33 34 33 29 25 22 21 19 16 15 13 12 4
178 182 187 188 183 187 195 200 227 221 157 79 33 65 71 103 91 94 89 84 88 85 81 76 67 47 48 46 34 32 32 32 30 27 24 22 20 19 18 18 16 12 8
175 182 186 197 198 189 198 194 200 187 109 86 140 135 142 348 79 105 92 94 95 102 97 82 65 52 62 52 38 28 28 29 28 26 23 22 21 20 18 14 11 7 3
182 186 190 191 196 192 199 192 198 188 158 131 113 160 144 202 131 140 99 99 103 94 96 88 75 60 63 71 39 14 27 26 25 23 23 23 21 19 13 14 8 6 1
193 191 187 190 193 194 203 192 174 188 160 162 108 166 97 147 162 143 84 106 119 108 104 83 79 62 58 83 43 23 29 26 26 23 24 21 21 16 13 10 4 2 358
197 192 194 190 192 186 177 164 169 201 176 142 152 153 131 56 72 130 163 155 74 112 115 107 94 66 36 51 54 18 28 25 26 22 24 21 20 11 6 5 3 359 358
186 185 189 188 180 168 174 172 168 177 166 143 142 153 167 164 186 157 136 151 150 185 128 112 104 82 60 28 39 20 26 24 24 20 21 16 18 7 1 0 360 359 357
183 196 181 181 176 166 161 157 164 149 157 153 151 152 135 142 138 128 120 136 148 168 157 126 124 107 68 33 31 20 27 19 21 16 15 10 7 5 358 356 357 357 355
200 190 191 179 171 165 162 153 152 144 143 151 141 137 133 125 94 126 152 141 104 241 62 183 159 92 62 351 43 15 30 13 10 13 8 4 1 358 355 354 354 355 353
183 177 182 181 169 164 160 149 149 154 139 144 137 135 131 139 124 112 109 118 146 172 207 237 154 143 125 266 122 20 32 334 354 5 0 355 353 352 351 352 352 354 352
164 168 175 178 171 165 152 144 145 149 135 135 136 138 139 143 131 125 132 138 125 164 161 155 188 149 193 319 102 45 343 337 337 341 351 348 344 347 348 351 351 355 352
156 168 174 176 176 166 161 151 153 155 148 151 149 149 156 150 158 156 154 150 162 151 163 134 127 170 147 202 340 344 354 310 319 313 340 351 344 348 347 349 351 355 353
161 169 170 175 178 175 163 166 165 164 164 163 164 158 163 163 167 162 158 176 175 167 175 170 162 207 172 199 233 286 296 304 306 312 327 355 347 343 345 348 352 355 353
158 158 174 180 184 166 188 175 168 166 169 171 168 165 169 167 164 168 162 167 155 154 152 154 194 200 194 174 309 302 278 279 286 322 345 345 347 343 342 349 352 353 351
156 164 178 180 179 177 164 164 165 158 163 164 170 168 167 172 169 164 169 167 169 144 161 177 158 235 178 231 130 167 316 293 300 330 352 330 345 333 341 350 346 342 353
165 163 162 154 160 156 175 156 175 157 169 161 167 162 161 157 160 168 167 165 159 149 164 180 207 218 189 133 188 258 281 295 300 8 326 329 326 328 338 355 322 335 354
158 157 167 163 168 178 163 175 156 163 167 159 157 153 142 150 174 173 165 178 176 175 174 165 201 215 182 167 147 177 288 347 307 285 31 322 66 323 304 325 331 357 357
151 162 159 160 163 155 166 167 155 160 156 175 159 169 158 160 163 169 184 183 186 188 186 177 214 240 185 173 143 197 249 265 267 289 76 296 343 319 281 329 342 1 0
178 179 174 169 157 170 170 169 166 155 162 177 158 172 173 168 179 172 177 185 195 187 206 198 198 230 171 147 169 190 220 261 276 268 128 206 309 291 309 312 7 4 1
187 187 179 170 166 165 180 175 164 154 148 164 153 167 170 171 183 188 182 193 197 196 205 211 210 207 218 223 202 166 249 104 292 267 330 128 288 286 301 297 321 19 7
177 147 127 124 130 151 177 176 159 154 159 153 142 172 179 180 188 198 190 189 208 184 179 160 193 215 251 266 238 187 171 176 209 328 255 110 329 35 332 293 325 39 331